Weather in Washington

United States     38°53′58″N   77°02′11″W
temp.,
°C
wind,
m/s
gust,
m/s
humid.,
%
clouds,
%
prec.,
mm/h
press.,
hPa
HPBL,
m
28 june, tue
tue2823:00+21nnw412490 0.0 1018427
02:00+19n412520 0.0 1019469
05:00+17nnw39564 0.0 1020279
08:00+19n25530 0.0 1022223
11:00+23nnw463848 0.0 10231625
14:00+25nnw4436100 0.0 10221695
17:00+25nnw333886 0.0 10221582
20:00+22nne115261 0.0 102211
29 june, wed
wed2923:00+19sse2259100 0.0 102356
02:00+18ssw2260100 0.0 102340
05:00+17ssw236859 0.0 102362
08:00+20ssw25580 0.0 1024270
11:00+27ssw35380 0.0 1023955
14:00+31sw36358 0.0 10222333
17:00+32w243196 0.0 10202784
20:00+26ese355618 0.0 1021196
30 june, thu
thu3023:00+22ese12750 0.1 102286
02:00+20nw11870 0.2 102213
05:00+19nnw22710 0.0 102251
08:00+22nnw24520 0.0 1023189
11:00+29nnw22370 0.0 1023943
14:00+32nw23280 0.0 10221985
17:00+33nw23280 0.0 10202371
20:00+28ese36480 0.0 1020220
1 july, fri
fri123:00+24sse295513 0.0 1020293
02:00+24s28650 0.0 1019312
05:00+22sw29760 0.0 1019305
08:00+25wsw35670 0.0 1019341
11:00+31ssw344529 0.0 1018789
14:00+35ssw463461 0.0 10172140
17:00+32w6938100 0.0 10151016
20:00+29ssw284667 0.0 1015468
2 july, sat
sat223:00+25w1172100 0.6 101620
02:00+24ssw2867100 0.6 1015253
05:00+23sw2677100 0.0 1015206
08:00+25sw2369100 0.1 1016267
11:00+31wsw1149100 0.0 1016905
14:00+33nw3442100 0.0 10151953
17:00+22ene1195100 23.6 1016234
20:00+23nw139237 24.4 1016222